User: anonymous   Login
Location: NJAA Observatory
(40.6819°N, 74.8979°W)
Time: 08:41:01
(UTC-04:00)
Language:

Meteor 1-28 Rocket - Orbit

View from above orbital plane
View from above orbital plane
View from above satellite
View from above satellite

Ground track
Ground track

The orbit data is extracted from the following two-line orbital elements,

1 10114U 77057B   17087.92217403 +.00000706 +00000-0 +39263-4 0  9994
2 10114 097.1995 274.2596 0012629 236.1428 123.8605 15.16645161171189
Epoch (UTC): 28 March 2017 22:07:55
Eccentricity: 0.0012629
inclination: 97.1995°
perigee height: 507 km
apogee height: 525 km
right ascension of ascending node: 274.2596°
argument of perigee: 236.1428°
revolutions per day: 15.16645161
mean anomaly at epoch: 123.8605°
orbit number at epoch: 17118

The dashed part of the orbit path shows where the satellite is in the earth's shadow,  

DLR